Time,TemperatureF,DewpointF,PressureIn,WindDirection,WindDirectionDegrees,WindSpeedMPH,WindSpeedGustMPH,Humidity,HourlyPrecipIn,Conditions,Clouds,dailyrainin,SoftwareType,DateUTC
2015-05-04 00:00:00,60.5,31.8,29.98,WNW,293,0.9,1.3,34,0.00,,,0.00,WUHU216HW,2015-05-04 07:00:00,
2015-05-04 00:05:00,60.1,31.4,29.98,SW,225,1.6,1.6,34,0.00,,,0.00,WUHU216HW,2015-05-04 07:05:00,
2015-05-04 00:10:00,60.1,31.4,29.98,West,270,0.0,2.2,34,0.00,,,0.00,WUHU216HW,2015-05-04 07:10:00,
2015-05-04 00:15:00,59.8,31.2,29.98,WSW,248,1.1,2.9,34,0.00,,,0.00,WUHU216HW,2015-05-04 07:15:00,
2015-05-04 00:20:00,59.6,32.4,29.98,West,270,2.5,2.9,36,0.00,,,0.00,WUHU216HW,2015-05-04 07:20:00,
2015-05-04 00:24:00,59.4,32.2,29.98,WSW,248,0.7,2.5,36,0.00,,,0.00,WUHU216HW,2015-05-04 07:24:00,
2015-05-04 00:30:00,59.2,32.1,29.98,WNW,293,0.9,1.8,36,0.00,,,0.00,WUHU216HW,2015-05-04 07:30:00,
2015-05-04 00:35:00,59.0,32.0,29.98,NW,315,0.0,2.5,36,0.00,,,0.00,WUHU216HW,2015-05-04 07:35:00,
2015-05-04 00:39:00,59.0,32.0,29.98,WSW,248,1.3,2.5,36,0.00,,,0.00,WUHU216HW,2015-05-04 07:39:00,
2015-05-04 00:44:00,58.7,31.6,29.99,West,270,1.8,3.8,36,0.00,,,0.00,WUHU216HW,2015-05-04 07:44:00,
2015-05-04 00:49:00,58.5,31.4,29.99,WSW,248,0.2,3.8,36,0.00,,,0.00,WUHU216HW,2015-05-04 07:49:00,
2015-05-04 00:54:00,58.3,31.3,29.99,WNW,293,0.0,2.5,36,0.00,,,0.00,WUHU216HW,2015-05-04 07:54:00,
2015-05-04 00:59:00,58.3,31.3,29.99,East,90,0.0,0.7,36,0.00,,,0.00,WUHU216HW,2015-05-04 07:59:00,
2015-05-04 01:04:00,58.1,31.2,29.99,East,90,0.4,0.4,36,0.00,,,0.00,WUHU216HW,2015-05-04 08:04:00,
2015-05-04 01:09:00,58.1,31.2,29.99,East,90,0.4,0.4,36,0.00,,,0.00,WUHU216HW,2015-05-04 08:09:00,
2015-05-04 01:14:00,58.0,31.0,29.99,WSW,248,0.4,1.3,36,0.00,,,0.00,WUHU216HW,2015-05-04 08:14:00,
2015-05-04 01:19:00,57.8,31.5,29.99,WNW,293,0.7,1.8,37,0.00,,,0.00,WUHU216HW,2015-05-04 08:19:00,
2015-05-04 01:24:00,57.4,31.1,29.99,West,270,1.1,1.8,37,0.00,,,0.00,WUHU216HW,2015-05-04 08:24:00,
2015-05-04 01:29:00,57.1,31.6,29.99,NNW,338,0.0,1.6,38,0.00,,,0.00,WUHU216HW,2015-05-04 08:29:00,
2015-05-04 01:34:00,56.5,31.8,29.99,ESE,113,0.2,1.6,39,0.00,,,0.00,WUHU216HW,2015-05-04 08:34:00,
2015-05-04 01:39:00,56.2,31.4,29.98,WSW,248,0.2,0.9,39,0.00,,,0.00,WUHU216HW,2015-05-04 08:39:00,
2015-05-04 01:44:00,55.8,30.4,29.98,SW,225,0.0,1.1,38,0.00,,,0.00,WUHU216HW,2015-05-04 08:44:00,
2015-05-04 01:49:00,56.0,30.6,29.98,SSE,158,0.0,1.1,38,0.00,,,0.00,WUHU216HW,2015-05-04 08:49:00,
2015-05-04 01:54:00,56.2,30.8,29.98,SSE,158,0.0,0.4,38,0.00,,,0.00,WUHU216HW,2015-05-04 08:54:00,
2015-05-04 01:59:00,56.2,30.8,29.98,SSE,158,0.0,0.4,38,0.00,,,0.00,WUHU216HW,2015-05-04 08:59:00,
2015-05-04 02:04:00,56.0,30.6,29.98,SSE,158,0.0,0.0,38,0.00,,,0.00,WUHU216HW,2015-05-04 09:04:00,
2015-05-04 02:09:00,55.6,31.7,29.98,SSE,158,0.0,0.0,40,0.00,,,0.00,WUHU216HW,2015-05-04 09:09:00,
2015-05-04 02:14:00,54.5,31.8,29.98,WSW,248,0.7,1.8,42,0.00,,,0.00,WUHU216HW,2015-05-04 09:14:00,
2015-05-04 02:19:00,54.2,30.3,29.98,WSW,248,0.7,1.8,40,0.00,,,0.00,WUHU216HW,2015-05-04 09:19:00,
2015-05-04 02:24:00,54.2,30.3,29.98,West,270,0.0,0.9,40,0.00,,,0.00,WUHU216HW,2015-05-04 09:24:00,
2015-05-04 02:29:00,54.2,30.3,29.98,WSW,248,0.7,0.9,40,0.00,,,0.00,WUHU216HW,2015-05-04 09:29:00,
2015-05-04 02:34:00,54.4,30.5,29.98,WNW,293,1.6,2.2,40,0.00,,,0.00,WUHU216HW,2015-05-04 09:34:00,
2015-05-04 02:39:00,54.4,30.5,29.98,West,270,0.2,2.2,40,0.00,,,0.00,WUHU216HW,2015-05-04 09:39:00,
2015-05-04 02:44:00,54.5,30.7,29.98,WSW,248,0.0,1.1,40,0.00,,,0.00,WUHU216HW,2015-05-04 09:44:00,
2015-05-04 02:49:00,54.5,30.7,29.98,WSW,248,0.0,0.4,40,0.00,,,0.00,WUHU216HW,2015-05-04 09:49:00,
2015-05-04 03:00:00,54.4,30.5,29.98,West,270,0.4,0.4,40,0.00,,,0.00,WUHU216HW,2015-05-04 10:00:00,
2015-05-04 03:05:00,54.4,30.5,29.98,West,270,0.0,0.4,40,0.00,,,0.00,WUHU216HW,2015-05-04 10:05:00,
2015-05-04 03:10:00,54.2,31.0,29.98,West,270,1.1,1.1,41,0.00,,,0.00,WUHU216HW,2015-05-04 10:10:00,
2015-05-04 03:15:00,54.2,30.3,29.98,West,270,0.4,1.6,40,0.00,,,0.00,WUHU216HW,2015-05-04 10:15:00,
2015-05-04 03:20:00,54.2,31.0,29.98,NW,315,0.0,2.7,41,0.00,,,0.00,WUHU216HW,2015-05-04 10:20:00,
2015-05-04 03:25:00,54.0,30.3,29.98,ESE,113,0.4,2.7,40,0.00,,,0.00,WUHU216HW,2015-05-04 10:25:00,
2015-05-04 03:30:00,53.8,30.1,29.98,ESE,113,0.0,0.9,40,0.00,,,0.00,WUHU216HW,2015-05-04 10:30:00,